sat.trackr.live / text

‹ back to catalog

STARLINK-32408

NORAD 62054 · 2024-216Y

PAYLOAD ACTIVE UNKNOWN

§ Identity

Operator
Country
US
Launch date
2024-11-21
Launch site
AFETR
Launch vehicle
Mass (kg)
RCS (m²)

Purposes: comms

External: N2YO · Heavens-Above · Gunter

§ Orbital elements

Epoch: 2026-09-21T21:39:27.440352Z

Period
94.27 min
Inclination
43.0007°
Eccentricity
0.0001467
Mean motion
15.27585773 rev/d
Perigee alt
482.0 km
Apogee alt
484.0 km
Semi-major
6,861.2 km
B*
3.2697e-4
RAAN
228.2330°
Arg perigee
262.5594°
Mean anomaly
97.5091°
Rev number
10,389

§ Raw data

STARLINK-324081 62054U 24216Y   26264.90240093  .00008748  00000+0  32697-3 0  99952 62054  43.0007 228.2330 0001467 262.5594  97.5091 15.27585773103896

JSON: /api/v1/satellites/62054 · /tle

For live sub-satellite position, see the globe view (requires WebGL).

§ Visibility from observer

Set your observer location to see the next 7 days of passes ≥ 10°. The values pass through the URL so the page stays shareable.

No JS? Fill the form by hand. The geolocation button needs JavaScript.